This is the latest recevied weather packets stored in our database for station/object VE3CGR-6. If no packets are shown the sender has not sent any weather packets the latest 10 day(s).
| Time | Temp. | Humidity | Pressure | Rain* | Wind** | Luminosity | Snow |
|---|---|---|---|---|---|---|---|
| 1788547817 | 24.44° C | 64% | 1015.3 hPa | 0 mm | - | - | - |
| 1788547217 | 24.44° C | 63% | 1015.4 hPa | 0 mm | - | - | - |
| 1788546617 | 24.44° C | 63% | 1015.6 hPa | 0 mm | - | - | - |
| 1788546017 | 25° C | 62% | 1015.6 hPa | 0 mm | - | - | - |
| 1788545417 | 25.56° C | 61% | 1015.6 hPa | 0 mm | - | - | - |
| 1788544817 | 25° C | 60% | 1015.7 hPa | 0 mm | - | - | - |
| 1788544217 | 25° C | 62% | 1015.6 hPa | 0 mm | - | - | - |
| 1788543617 | 25° C | 63% | 1015.8 hPa | 0 mm | - | - | - |
| 1788543017 | 24.44° C | 64% | 1015.9 hPa | 0 mm | - | - | - |
| 1788542417 | 24.44° C | 65% | 1016 hPa | 0 mm | - | - | - |
| 1788541817 | 24.44° C | 63% | 1016 hPa | 0 mm | - | - | - |
| 1788541217 | 24.44° C | 66% | 1016.1 hPa | 0 mm | - | - | - |
| 1788540617 | 24.44° C | 64% | 1016.3 hPa | 0 mm | - | - | - |
| 1788540017 | 24.44° C | 66% | 1016.1 hPa | 0 mm | - | - | - |
| 1788539417 | 24.44° C | 65% | 1016.2 hPa | 0 mm | - | - | - |
| 1788538816 | 23.89° C | 67% | 1016.3 hPa | 0 mm | - | - | - |
| 1788538235 | 23.89° C | 67% | 1016.4 hPa | 0 mm | - | - | - |
| 1788537617 | 23.33° C | 69% | 1016.3 hPa | 0 mm | - | - | - |
| 1788537017 | 23.33° C | 68% | 1016.3 hPa | 0 mm | - | - | - |
| 1788536417 | 23.33° C | 73% | 1016.5 hPa | 0 mm | - | - | - |
| 1788535817 | 22.78° C | 75% | 1016.4 hPa | 0 mm | - | - | - |
| 1788535222 | 22.78° C | 77% | 1016.4 hPa | 0 mm | - | - | - |
| 1788534617 | 22.22° C | 77% | 1016.3 hPa | 0 mm | - | - | - |
| 1788534016 | 22.22° C | 77% | 1016.2 hPa | 0 mm | - | - | - |
| 1788533416 | 22.22° C | 78% | 1016.3 hPa | 0 mm | - | - | - |
* Rain latest hour (hover to see other rain measurements)
** Current wind speed in m/s (hover to see current wind gust speed)